Home > Weather > Pasadena > Past weeks

Flag for USA Past Weather in Pasadena, California, USA — Yesterday and Last 2 Weeks

Now
76 °F

Clear.


Feels Like: 78 °F
Forecast: 68 / 92 °F
Wind: 6 mph from Southeast

Location: Bob Hope Airport

Current Time: Jul 25, 2016 at 11:37:13 PM

Latest Report: Jul 25, 2016 at 10:53 PM


Visibility: 10 mi

Pressure: 29.87 "Hg

Humidity: 50%

Dew Point: 56 °F

Location of PasadenaLocation

Past Weather in Pasadena — Graph

°F

Pasadena Temperature Yesterday

Maximum temperature yesterday: 93 °F (at 4:53 PM)
Minimum temperature yesterday: 67 °F (at 5:53 AM)
Average temperature yesterday: 81 °F

High & Low Weather Summary for the Past Weeks

 TemperatureHumidityPressure
High101 °F (Jul 22, 2:53 PM)93% (Jul 14, 6:53 AM)30.00 "Hg (Jul 14, 6:53 AM)
Low61 °F (Jul 17, 5:53 AM)11% (Jul 21, 2:53 PM)29.75 "Hg (Jul 23, 1:53 PM)
Average77 °F53%29.88 "Hg
* Reported Jul 10 9:53 PM — Jul 25 9:53 PM, Pasadena, Weather by CustomWeather, © 2016

Note: Actual official high and low records may vary slightly from our data, if they occured in-between our weather recording intervals... More about our weather records

Advertising

Pasadena Weather History for the Previous 24 Hours

Scroll right to see more
 ConditionsComfort  
Time TempWeatherWind HumidityBarometerVisibility
9:53 PM
Mon, Jul 25
77 °FClear.3 mph44%29.87 "Hg10 mi
8:53 PM77 °FSunny.9 mph48%29.86 "Hg10 mi
7:53 PM79 °FSunny.9 mph45%29.84 "Hg10 mi
6:53 PM85 °FSunny.10 mph34%29.82 "Hg10 mi
5:53 PM89 °FSunny.12 mph29%29.81 "Hg10 mi
4:53 PM94 °FSunny.12 mph26%29.81 "Hg10 mi
3:53 PM98 °FSunny.10 mph13%29.82 "Hg10 mi
2:53 PM97 °FSunny.No wind17%29.84 "Hg10 mi
1:53 PM94 °FSunny.6 mph25%29.88 "Hg10 mi
12:53 PM92 °FSunny.9 mph25%29.90 "Hg10 mi
11:53 AM90 °FSunny.7 mph24%29.92 "Hg10 mi
10:53 AM88 °FSunny.9 mph22%29.93 "Hg10 mi
9:53 AM84 °FSunny.8 mph27%29.94 "Hg10 mi
8:53 AM79 °FSunny.5 mph42%29.94 "Hg10 mi
7:53 AM75 °FSunny.No wind52%29.93 "Hg10 mi
6:53 AM70 °FClear.No wind64%29.90 "Hg8 mi
5:53 AM69 °FClear.3 mph66%29.89 "Hg10 mi
4:53 AM70 °FClear.No wind76%29.88 "Hg10 mi
3:53 AM70 °FClear.No wind84%29.88 "Hg10 mi
2:53 AM71 °FClear.6 mph84%29.89 "Hg10 mi
1:53 AM71 °FClear.5 mph84%29.88 "Hg10 mi
12:53 AM72 °FClear.7 mph81%29.88 "Hg10 mi
11:53 PM
Sun, Jul 24
75 °FClear.10 mph74%29.88 "Hg10 mi
Weather by CustomWeather, © 2016

See weather overviewHow to use our weather pages